Regional Weather Roundup
Issued by NWS

Home | Current Version | Previous Version | Graphics & Text | Print | Product List | Glossary On
Versions: 1 2 3 4 5 6 7 8 9 10 11 12 13 14 15 16 17 18 19 20 21 22 23 24 25 26 27 28 29 30 31 32 33 34 35 36 37 38 39 40 41 42 43 44 45 46 47 48 49 50
678
ASUS43 KMPX 131601
RWRMN
WEATHER ROUNDUP FOR MINNESOTA
NATIONAL WEATHER SERVICE TWIN CITIES/CHANHASSEN MN
1000 AM CST WED DEC 13 2017


NOTE: "FAIR" INDICATES FEW OR NO CLOUDS BELOW 12,000 FEET WITH NO
SIGNIFICANT WEATHER AND/OR OBSTRUCTIONS TO VISIBILITY. N/A MEANS
CURRENT SKY AND/OR WEATHER CONDITIONS ARE NOT AVAILABLE.

MNZ060>063-068>070-131700-
   Twin Cities Metro

CITY           SKY/WX    TMP DP  RH WIND       PRES   REMARKS
TWIN CITIES    CLOUDY    26  24  92 N17G29    29.50R WCI  13
ST PAUL        CLOUDY    25  21  85 NW17      29.51R WCI  12
CRYSTAL        CLOUDY    26  20  77 NW17G24   29.51R WCI  13
BLAINE           N/A     27  23  86 NW16G22   29.49R WCI  14
LAKEVILLE      CLOUDY    27  25  93 NW20G29   29.46R WCI  13
EDEN PRAIRIE   CLOUDY    29  24  82 NW16G25   29.50R WCI  17
SOUTH ST PAUL  PTSUNNY   26  22  84 NW16G24   29.49R WCI  14
LAKE ELMO      CLOUDY    25  21  86 N9        29.50R WCI  15
$$
MNZ001>005-007-008-013>017-022>024-027-028-131700-
   Northwest Minnesota

CITY           SKY/WX    TMP DP  RH WIND       PRES   REMARKS
BEMIDJI        CLOUDY    17  15  91 N12       29.65R WCI   4
HALLOCK        CLOUDY    23  19  86 N16G22    29.76R WCI  10
ROSEAU         CLOUDY    18  12  79 N12       29.72R WCI   5
WARROAD        FLURRIES  16  10  79 N7        29.72R WCI   6
CROOKSTON      CLOUDY    25  21  86 N26       29.75R WCI   9
FOSSTON        CLOUDY    18  18 100 N16G22    29.69R FOG     WCI   3
DETROIT LAKES  CLOUDY    25  23  93 N26       29.67R FOG     WCI   9
MOORHEAD       CLOUDY    27  23  86 N26G32    29.74R WCI  11
PARK RAPIDS    CLOUDY    20  17  88 NW17G26   29.61R WCI   5
MAHNOMEN       CLOUDY    22  20  93 N20G25    29.68R FOG     WCI   7
$$
MNZ006-009>011-018-025>026-131700-
   North Central Minnesota

CITY           SKY/WX    TMP DP  RH WIND       PRES   REMARKS
BAUDETTE       CLOUDY    15  10  80 N8        29.68R WCI   4
FLAG ISLAND    FLURRIES  12   9  85 N10       29.71R WCI  -1
INTL FALLS     SNOW      15  11  83 NE9       29.65R VSB 1/2 WCI   3
WASKISH        CLOUDY    16  12  86 N6        29.66R WCI   7
BIG FORK       LGT SNOW  18  14  86 NE3       29.59S
LONGVILLE      CLOUDY    18  16  93 N7        29.61R WCI   8
GRAND RAPIDS   FLURRIES  17  14  88 N10       29.60R WCI   5
CRANE LAKE     LGT SNOW  14  10  85 CALM      29.67R VSB 3/4
ORR            LGT SNOW  16  10  79 CALM      29.60R
COOK           LGT SNOW  18  14  86 N5        29.61R VSB 3/4 WCI  11
WALKER         CLOUDY    18  15  90 N13       29.62R WCI   4
$$
MNZ012-019>021-037-131700-
   Northeast Minnesota

CITY           SKY/WX    TMP DP  RH WIND       PRES   REMARKS
DULUTH         FLURRIES  20  18  92 N8        29.51R WCI  10
ELY            LGT SNOW  16  12  86 N6        29.59R WCI   7
HIBBING        LGT SNOW  18  15  88 N9        29.57R FOG     WCI   7
EVELETH        FLURRIES  19  13  79 N6        29.58R WCI  10
DULUTH HARBOR  FLURRIES  25  21  86 E9        29.56R WCI  15
TWO HARBORS    LGT SNOW  25  19  80 NE13      29.52R WCI  13
GRAND MARAIS     N/A     23  19  85 NE14G22   29.63R WCI  11
G MARAIS ARPRT LGT SNOW  16  10  79 NE12      29.56R WCI   3
$$
MNZ029>031-032-039>041-046>048-054>057-064-131700-
   West Central Minnesota

CITY           SKY/WX    TMP DP  RH WIND       PRES   REMARKS
FERGUS FALLS   CLOUDY    27  23  86 N30G44    29.71R WCI  10
WHEATON        CLOUDY    32  27  80 NW26G36   29.74R WCI  18
MORRIS         CLOUDY    28  25  86 NW32G44   29.66R WCI  12
ALEXANDRIA     CLOUDY    26  22  84 N22G30    29.62R WCI  12
ELBOW LAKE     CLOUDY    26  24  92 NW24G33   29.68R WCI  10
WADENA         CLOUDY    21  21 100 NW17G25   29.61R FOG     WCI   7
GLENWOOD       MOSUNNY   27  23  86 NW29G35   29.62R WCI  11
APPLETON       CLOUDY    34  27  75 NW28G39   29.68R WCI  20
BENSON         CLOUDY    28  25  86 N24G39    29.67R WCI  14
ORTONVILLE     CLOUDY    30  27  86 N23G36    29.71R WCI  17
MADISON        CLOUDY    34  30  86 N28G37    29.71R WCI  20
WILLMAR        CLOUDY    30  27  86 NW31      29.62R WCI  15
$$
MNZ033>034-036-042>043-049>051-058-059-131700-
   Central Minnesota

CITY           SKY/WX    TMP DP  RH WIND       PRES   REMARKS
ST CLOUD       CLOUDY    26  22  84 N23G31    29.55R WCI  11
SAUK CENTRE    CLOUDY    27  23  86 NW28      29.59R WCI  11
PAYNESVILLE    CLOUDY    29  27  90 NW21G29   29.59R WCI  16
AITKIN         CLOUDY    16  14  93 NW9       29.56R WCI   4
PINE RIVER     CLOUDY    18  16  93 N14G21    29.64R WCI   4
BRAINERD       CLOUDY    20  16  84 N15G28    29.58R FOG     WCI   6
STAPLES        CLOUDY    23  19  86 N14G25    29.59R WCI  11
LONG PRAIRIE   CLOUDY    27  23  86 W24G32    29.57R FOG     WCI  12
LITTLE FALLS   CLOUDY    27  19  74 N7        29.58R WCI  19
LITCHFIELD     CLOUDY    32  28  86 NW21G35   29.56R WCI  20
BUFFALO        CLOUDY    28  23  81 NW14G22   29.54R WCI  17
MAPLE LAKE     CLOUDY    30  26  86 N17G30    29.55R WCI  18
HUTCHINSON     CLOUDY    32  28  86 NW23G38   29.56R WCI  19
$$
MNZ037-044-045-052-053-131700-
   East Central Minnesota

CITY           SKY/WX    TMP DP  RH WIND       PRES   REMARKS
PRINCETON      CLOUDY    25  19  80 N16G28    29.54R WCI  12
MORA           CLOUDY    19  16  86 N9G18     29.55R WCI   9
CAMBRIDGE      FLURRIES  25  19  80 N10       29.53R WCI  15
RUSH CITY      CLOUDY    19  15  82 N12G17    29.52R WCI   7
MOOSE LAKE     CLOUDY    21  18  86 N9        29.52R WCI  11
HINCKLEY       CLOUDY    21  18  86 N10       29.52R WCI  10
CLOQUET        CLOUDY    19  16  86 N13       29.52R WCI   7
MCGREGOR       CLOUDY    19  18  93 NW12      29.56R WCI   7
$$
MNZ071>073-080-081-089-090-097-098-131700-
   Southwest Minnesota

CITY           SKY/WX    TMP DP  RH WIND       PRES   REMARKS
MONTEVIDEO     CLOUDY    32  27  80 N26G48    29.67R WCI  18
GRANITE FALLS  CLOUDY    33  28  79 NW30G48   29.67R WCI  20
CANBY          CLOUDY    36  32  87 NW22G31   29.71R
MARSHALL       CLOUDY    33  28  81 N33G48    29.66R WCI  18
REDWOOD FALLS  CLOUDY    31  26  82 NW26G40   29.63R WCI  17
OLIVIA         CLOUDY    30  28  93 NW24G33   29.61R WCI  16
PIPESTONE      CLOUDY    36  30  80 N25G43    29.68R
WINDOM           N/A     32  19  59 NW39G54   29.60R WCI  16
WORTHINGTON    CLOUDY    33  30  88 NW33G40   29.65R WCI  18
JACKSON        CLOUDY    32  28  86 MISG      29.60R
SLAYTON        CLOUDY    33  31  91 NW32G43   29.63R WCI  19
$$
MNZ065>067-074>077-082>085-091>093-131700-
   South Central Minnesota

CITY           SKY/WX    TMP DP  RH WIND       PRES   REMARKS
MANKATO        CLOUDY    34  31  88 NW21G26   29.51R WCI  22
NEW ULM        CLOUDY    30  27  86 NW31G40   29.57R WCI  15
ST JAMES       CLOUDY    30  28  93 NW29G44   29.59R WCI  15
FAIRMONT       CLOUDY    32  28  85 NW36G45   29.56R WCI  16
GLENCOE        CLOUDY    34  31  89 NW20      29.52R WCI  23
FARIBAULT      CLOUDY    30  27  86 NW21G30   29.48R WCI  17
OWATONNA       CLOUDY    30  27  86 NW24G31   29.47R WCI  16
WASECA         CLOUDY    32  30  93 NW30G36   29.50R WCI  18
$$
MNZ078>079-086>088-094>096-131700-
   Southeast Minnesota

CITY           SKY/WX    TMP DP  RH WIND       PRES   REMARKS
ROCHESTER      LGT SNOW  29  26  89 NW30G37   29.39R FOG     WCI  13
RED WING       FLURRIES  25  18  74 N9        29.45R WCI  15
STANTON        CLOUDY    30  26  84 NW17G28   29.47R WCI  18
DODGE CENTER   CLOUDY    28  27  93 NW23G31   29.42R WCI  14
WINONA         CLOUDY    30  23  74 N8        29.39R WCI  23
AUSTIN         LGT SNOW  32  27  80 NW23G37   29.41R WCI  19
PRESTON        CLOUDY    32  25  76 NW21G29   29.36R WCI  19
$$
ABBREVIATIONS USED IN REMARKS
   TC - TEMPERATURES IN CELSIUS
  WCI - WIND CHILL INDEX
   HX - HEAT INDEX
  VSB - VISIBILITY
$$




USA.gov is the U.S. government's official web portal to all federal, state and local government web resources and services.